{"data":{"norad_id":60940,"epoch":"2026-09-21T08:35:08.506176Z","epoch_age_seconds":114109,"freshness":"FRESH","line1":"1 60940U 24155S   26264.35773734 -.00005034  00000+0 -13788-3 0  9998","line2":"2 60940  53.1587 297.6141 0001295  87.9823 272.1328 15.34413800116343","mean_motion":15.344138,"eccentricity":0.0001295,"inclination_deg":53.1587,"raan_deg":297.6141,"arg_perigee_deg":87.9823,"mean_anomaly_deg":272.1328,"bstar":-0.00013788,"rev_number":11634,"period_min":93.846914046263,"perigee_km":461.77634050679,"apogee_km":463.5481075058,"semimajor_km":6840.7992240063,"source":"CELESTRAK","updated_at":"2026-09-22T09:00:49.292751Z"}}